Volver al catálogo

XINGJIYUAN-1

ActivoCienciaSSO
NORAD 64090·PAYLOAD·🇨🇳 China
Este nombre de satélite aún no ha sido confirmado por fuentes oficiales.

Lanzado May 21, 2025 desde Jiuquan Satellite Launch Center

Loading…

Próximos Pases (próximas 24 horas)

TLE

ActualizadoSource: Space-Track

Época: Sep 14, 2026, 15:05 UTC

1 64090U 25108D   26257.62882056  .00004357  00000-0  20756-3 0  9996
2 64090  97.4619 332.2283 0013172  57.8146 302.4364 15.19581963 72947

Sigue XINGJIYUAN-1 en tiempo real con AllMySat

Download on the App Store